Wetbulb
73.84 76.60 78.75 78.58 77.97 78.00 77.70 76.64 76.14 75.79 75.76 75.81 75.39 76.14 76.76 76.61 76.46 76.51 76.64 76.72 76.69 76.84 76.38 75.73 75.55 75.50 74.74 74.57 74.09 75.02 75.56 75.46 75.31 74.57 74.32 74.11 73.93 73.96 74.02 73.88 73.29 71.32 72.30
74.12 76.68 78.44 78.27 78.05 77.93 77.65 76.97 76.47 76.56 76.26 76.01 75.44 76.11 76.83 76.76 76.91 76.84 76.56 76.49 76.67 77.01 76.46 75.45 75.29 75.13 74.77 74.06 73.81 74.07 74.31 74.93 75.59 74.98 74.28 73.84 73.58 73.24 73.98 75.34 73.03 71.86 72.43
74.83 76.59 77.76 78.19 78.35 77.93 77.47 77.04 76.68 76.73 76.33 75.91 75.81 76.16 76.60 76.86 76.91 76.73 76.61 76.51 76.94 76.84 76.52 76.08 75.64 75.12 74.71 74.45 73.84 73.59 73.79 74.48 75.31 75.07 74.79 71.80 72.01 73.37 73.42 73.68 73.25 72.90 72.42
75.05 75.56 76.90 78.29 78.02 77.82 77.42 76.86 76.73 76.90 76.56 75.98 75.98 76.03 76.26 76.85 76.93 77.01 77.06 76.84 76.79 76.11 76.05 75.80 75.60 75.19 74.57 74.06 73.56 73.25 73.16 73.20 73.50 74.12 73.32 73.89 73.85 74.37 73.70 73.86 73.63 73.02 72.57
73.92 75.91 77.06 78.03 77.86 77.75 77.34 76.78 76.70 76.87 76.70 76.08 76.06 76.11 76.13 76.65 76.85 76.68 77.06 77.09 77.17 75.98 75.61 75.29 74.94 74.56 74.08 73.73 73.52 73.86 73.61 73.01 72.58 72.50 70.35 70.48 71.36 74.92 75.44 74.95 74.03 73.62 72.96
73.61 75.85 77.44 77.77 77.76 77.57 77.17 76.91 76.75 76.84 76.82 76.18 76.31 76.26 76.20 76.45 76.48 76.47 76.68 76.84 76.82 75.99 75.55 74.98 74.32 74.12 73.64 72.96 73.56 73.51 73.59 73.48 72.83 69.98 69.06 68.58 69.15 72.96 76.02 75.63 74.59 74.31 74.21
72.71 75.40 76.65 77.49 77.53 77.39 77.22 76.64 76.83 76.77 76.64 76.32 76.38 76.26 76.23 76.39 76.28 76.48 76.52 76.51 76.42 76.11 75.24 74.82 74.33 74.11 73.76 73.28 72.83 73.17 73.27 72.91 69.81 68.34 67.45 66.39 65.96 74.29 76.03 75.73 75.66 75.41 74.59
72.45 74.50 75.88 77.43 77.41 77.32 77.08 76.90 76.57 76.34 76.43 76.54 76.47 76.40 76.34 76.08 75.94 76.12 76.12 76.18 76.09 75.99 75.71 75.06 74.74 74.24 73.74 73.54 73.52 73.34 73.59 73.05 70.61 67.65 66.91 65.68 67.92 73.43 76.13 75.76 75.66 76.06 75.06
71.88 72.96 74.10 75.38 76.48 77.30 76.98 76.55 76.35 76.05 76.08 76.17 76.00 76.00 76.08 75.95 75.86 75.76 75.56 75.70 75.88 75.78 75.56 75.56 75.30 74.85 74.50 74.06 73.81 73.63 73.84 73.16 69.42 68.55 68.74 65.90 69.51 72.96 76.15 76.26 76.04 76.16 75.56
70.51 71.46 72.16 73.30 74.50 74.82 75.44 76.75 76.37 76.42 76.41 76.15 76.23 76.21 76.06 75.92 75.52 75.58 74.74 75.08 75.87 75.77 75.45 75.22 74.97 74.89 74.79 74.49 74.31 74.14 73.91 73.43 70.21 68.76 68.95 67.84 70.79 72.09 74.42 76.56 76.24 75.96 75.68
69.76 70.37 71.17 72.31 72.34 73.02 73.82 75.33 76.22 76.54 76.49 76.12 76.03 75.88 74.62 73.12 73.33 73.79 74.37 74.79 75.54 75.46 75.27 74.89 74.67 74.82 74.78 74.81 74.86 74.89 74.56 71.57 69.44 69.01 68.43 70.41 71.69 72.35 74.86 76.87 76.39 75.96 75.61
68.80 69.40 70.75 71.29 71.16 71.59 72.79 73.19 73.07 74.38 74.45 73.82 73.72 73.52 72.13 70.99 71.20 72.71 73.70 74.84 75.15 75.15 74.90 74.67 74.64 74.84 74.86 72.95 72.40 73.32 72.16 72.06 69.96 69.54 68.18 71.12 71.81 73.06 74.40 76.72 76.92 76.31 75.71
69.86 70.05 70.54 70.27 70.62 70.33 70.79 72.22 71.95 72.29 72.27 71.59 71.87 71.90 70.38 70.46 69.46 70.72 70.00 70.98 71.56 73.94 72.38 73.38 73.28 73.30 72.89 72.16 71.52 70.49 70.06 69.58 70.14 69.70 70.15 72.54 73.10 74.45 74.86 74.88 76.82 76.39 75.83
70.14 70.78 71.24 71.21 70.68 69.91 71.48 70.59 70.36 70.81 70.31 69.73 70.06 70.64 68.33 68.31 68.70 69.06 69.62 69.41 70.29 71.14 71.56 71.29 70.69 71.06 71.29 71.15 70.28 70.06 68.18 68.99 69.48 69.30 69.28 72.83 73.29 74.41 76.17 76.03 75.78 75.51 75.58
70.11 71.02 71.28 72.08 71.37 71.44 70.54 69.93 70.29 69.85 69.91 69.60 69.62 70.33 71.06 69.71 70.04 69.99 69.78 70.78 70.31 70.52 70.72 70.20 67.43 67.68 68.34 67.77 64.48 63.00 63.00 63.17 64.48 66.71 67.47 72.26 73.72 74.61 75.43 75.99 76.07 76.11 74.98
69.80 70.80 71.38 72.18 72.88 72.32 71.28 70.82 70.88 71.07 70.29 70.26 70.64 72.10 71.85 70.68 70.02 70.11 70.26 71.15 70.17 70.08 69.91 68.68 66.80 63.83 61.36 60.98 61.04 61.85 62.06 61.63 61.67 62.42 64.32 65.89 71.03 71.88 73.52 74.78 75.11 74.54 74.62
65.94 67.48 71.33 70.72 71.67 72.38 71.97 72.28 72.23 72.63 72.24 71.35 71.29 71.64 71.14 70.85 68.53 68.36 69.19 66.20 65.47 64.04 63.14 62.82 61.19 59.88 58.90 60.85 60.82 61.66 61.90 61.99 61.91 61.98 62.54 62.27 64.17 69.77 71.63 73.42 74.71 75.06 74.70
62.44 66.84 69.28 73.08 70.78 71.98 72.47 72.44 72.12 71.61 69.39 69.48 68.69 69.64 70.22 71.03 69.23 68.52 69.42 64.07 61.35 62.28 61.38 60.41 60.11 58.91 59.28 59.64 59.58 60.08 60.28 59.75 59.91 60.54 61.51 61.90 62.26 63.24 65.92 69.54 71.50 72.83 74.27
60.49 62.38 69.83 72.60 72.26 73.05 73.06 73.80 71.62 71.15 70.75 69.91 70.07 70.07 67.25 67.99 69.33 66.66 64.81 62.22 61.27 61.50 60.76 60.41 59.06 59.43 58.58 58.97 59.61 59.45 58.80 58.27 59.39 61.84 61.57 59.91 60.74 63.69 63.60 67.35 70.67 71.78 72.62
66.84 65.73 64.79 69.91 71.99 72.13 72.22 71.66 71.27 69.69 69.71 69.69 69.35 69.55 67.32 68.58 69.13 64.21 61.73 61.37 61.30 59.92 59.41 59.72 59.31 59.27 58.66 57.80 59.71 58.64 57.67 57.89 57.54 58.33 57.99 58.32 61.20 62.13 61.28 62.51 63.13 64.87 69.79
65.47 64.68 65.82 65.58 65.54 67.34 69.37 68.20 68.51 65.32 66.71 67.52 67.91 68.02 65.90 64.96 63.98 62.15 61.63 60.33 59.59 58.57 58.67 58.80 58.03 56.90 55.26 56.87 54.97 54.25 54.41 55.37 57.00 55.62 55.48 58.66 59.74 60.30 61.21 62.71 61.86 63.12 64.33
61.74 61.66 62.01 61.23 61.90 63.67 64.77 64.88 65.42 64.25 64.20 64.61 63.79 64.02 64.06 64.01 63.56 62.15 60.15 59.08 58.83 57.47 56.03 56.41 56.38 55.59 55.50 55.31 53.32 51.84 49.53 51.28 51.92 57.62 57.72 57.78 58.02 59.78 59.41 60.08 62.19 62.70 61.28
60.09 60.20 60.41 60.48 60.54 61.18 61.80 62.18 63.10 63.25 62.84 61.97 61.98 61.84 62.21 63.27 63.06 60.95 60.08 59.18 57.52 55.93 55.70 55.98 55.29 54.30 53.58 54.37 54.85 53.44 49.99 47.90 53.51 53.87 55.65 55.88 56.88 58.24 57.58 59.70 60.51 61.14 64.11
59.02 59.72 59.23 58.87 59.47 59.75 60.26 60.00 59.31 59.21 58.72 60.11 61.98 61.31 61.76 61.17 60.81 59.84 58.89 58.45 57.36 55.81 54.81 55.35 57.15 54.77 53.34 52.03 53.84 55.95 54.46 53.79 50.34 50.39 52.94 56.35 56.08 56.98 58.24 57.87 59.35 61.78 61.42
59.43 58.53 57.57 56.69 56.62 57.46 58.17 58.78 59.44 59.76 60.51 60.46 59.20 60.22 60.22 60.69 59.98 60.46 58.53 56.99 55.67 55.55 55.51 54.85 54.40 54.22 53.77 53.06 52.42 53.04 53.62 53.06 53.34 52.28 50.89 52.66 56.33 57.19 57.57 58.40 58.55 60.05 59.01
55.34 56.34 54.12 53.31 54.70 56.21 56.47 57.00 56.91 56.84 58.42 58.47 59.41 58.91 59.15 58.90 58.88 57.45 57.30 56.01 56.02 55.03 54.36 54.36 54.30 53.61 53.40 52.91 53.22 53.08 52.47 52.33 53.17 53.05 52.81 53.66 54.22 55.53 55.94 58.38 58.21 57.13 57.92
MSLP
1011.15 1010.95 1011.00 1011.05 1011.20 1011.45 1011.70 1011.96 1012.21 1012.25 1012.24 1012.28 1012.39 1012.49 1012.54 1012.63 1012.79 1013.04 1013.20 1013.33 1013.53 1013.71 1013.85 1014.00 1014.08 1014.20 1014.28 1014.29 1014.33 1014.40 1014.49 1014.62 1014.65 1014.70 1014.76 1014.86 1014.92 1014.87 1014.83 1014.82 1014.85 1015.03 1015.25
1010.64 1010.91 1010.82 1011.01 1011.33 1011.56 1011.80 1011.96 1012.10 1012.28 1012.35 1012.48 1012.57 1012.72 1012.78 1012.87 1013.12 1013.28 1013.42 1013.62 1013.81 1013.97 1014.06 1014.19 1014.29 1014.40 1014.45 1014.46 1014.46 1014.53 1014.63 1014.72 1014.78 1014.82 1014.87 1014.79 1014.80 1014.88 1014.85 1014.60 1014.88 1015.00 1015.14
1010.67 1010.98 1011.04 1010.87 1011.40 1011.73 1011.94 1012.07 1012.20 1012.40 1012.56 1012.68 1012.77 1012.92 1013.08 1013.17 1013.33 1013.52 1013.59 1013.76 1013.97 1014.12 1014.20 1014.33 1014.42 1014.46 1014.49 1014.46 1014.47 1014.49 1014.57 1014.63 1014.64 1014.74 1014.74 1014.74 1014.69 1014.84 1015.00 1014.99 1014.94 1014.97 1015.01
1010.75 1010.95 1010.98 1011.06 1011.42 1011.76 1012.10 1012.28 1012.37 1012.52 1012.74 1012.90 1012.94 1013.10 1013.36 1013.46 1013.58 1013.75 1013.82 1013.94 1014.11 1014.24 1014.34 1014.42 1014.50 1014.51 1014.54 1014.49 1014.42 1014.42 1014.49 1014.58 1014.62 1014.57 1014.69 1014.61 1014.54 1014.63 1014.79 1014.92 1014.90 1014.91 1014.82
1010.91 1010.82 1010.97 1011.20 1011.54 1011.84 1012.11 1012.40 1012.52 1012.63 1012.89 1013.06 1013.12 1013.20 1013.38 1013.51 1013.67 1013.88 1013.97 1013.99 1014.10 1014.19 1014.29 1014.42 1014.59 1014.66 1014.67 1014.63 1014.52 1014.42 1014.44 1014.53 1014.60 1014.67 1014.71 1014.69 1014.66 1014.45 1014.48 1014.76 1014.97 1014.81 1014.67
1010.84 1010.93 1011.00 1011.39 1011.74 1012.04 1012.23 1012.43 1012.63 1012.90 1013.10 1013.28 1013.22 1013.38 1013.55 1013.64 1013.67 1013.84 1014.00 1014.06 1014.09 1014.29 1014.41 1014.54 1014.62 1014.66 1014.68 1014.75 1014.68 1014.60 1014.51 1014.58 1014.68 1014.76 1014.70 1014.61 1014.48 1014.32 1014.34 1014.53 1014.77 1014.87 1014.71
1010.60 1010.75 1011.17 1011.51 1011.72 1012.09 1012.31 1012.53 1012.75 1013.04 1013.27 1013.45 1013.47 1013.58 1013.77 1013.89 1014.04 1014.18 1014.27 1014.39 1014.49 1014.61 1014.68 1014.71 1014.81 1014.83 1014.82 1014.75 1014.75 1014.75 1014.66 1014.49 1014.53 1014.72 1014.71 1014.47 1014.15 1013.81 1013.97 1014.16 1014.42 1014.68 1014.84
1009.74 1010.27 1010.77 1011.05 1011.33 1011.80 1012.16 1012.33 1012.72 1013.04 1013.37 1013.59 1013.66 1013.70 1013.90 1014.07 1014.22 1014.44 1014.52 1014.59 1014.68 1014.74 1014.77 1014.82 1014.88 1014.92 1014.85 1014.78 1014.77 1014.68 1014.59 1014.47 1014.33 1014.36 1014.43 1014.44 1014.13 1013.82 1013.74 1013.86 1014.02 1014.25 1014.51
1009.53 1010.32 1010.78 1010.94 1011.15 1011.54 1011.89 1012.17 1012.51 1012.93 1013.27 1013.51 1013.66 1013.76 1013.96 1014.14 1014.23 1014.38 1014.42 1014.44 1014.55 1014.60 1014.63 1014.71 1014.73 1014.75 1014.78 1014.71 1014.60 1014.60 1014.59 1014.55 1014.50 1014.45 1014.33 1014.07 1013.93 1013.79 1013.67 1013.62 1013.69 1013.81 1013.90
1010.18 1010.77 1011.08 1011.14 1011.38 1011.65 1011.89 1012.00 1012.19 1012.61 1013.04 1013.41 1013.74 1013.88 1014.01 1014.20 1014.26 1014.28 1014.41 1014.44 1014.53 1014.61 1014.64 1014.70 1014.76 1014.74 1014.73 1014.78 1014.73 1014.58 1014.41 1014.34 1014.34 1014.33 1014.17 1013.94 1013.72 1013.46 1013.25 1013.21 1013.36 1013.53 1013.61
1010.61 1010.78 1011.20 1011.17 1011.30 1011.46 1011.82 1011.95 1012.19 1012.38 1012.63 1013.12 1013.58 1013.81 1013.99 1014.22 1014.25 1014.36 1014.32 1014.36 1014.50 1014.52 1014.55 1014.64 1014.72 1014.80 1014.68 1014.60 1014.53 1014.40 1014.23 1014.04 1014.04 1013.98 1013.71 1013.40 1013.33 1013.25 1013.09 1013.07 1012.93 1012.96 1013.10
1010.31 1010.38 1010.56 1010.94 1011.26 1011.47 1011.59 1012.01 1012.38 1012.59 1012.67 1013.07 1013.29 1013.50 1013.72 1014.08 1014.31 1014.31 1014.35 1014.37 1014.23 1014.25 1014.30 1014.43 1014.53 1014.49 1014.43 1014.33 1014.29 1014.19 1014.12 1013.92 1013.85 1013.61 1013.39 1012.81 1012.73 1012.71 1012.65 1012.67 1012.73 1012.81 1012.67
1009.71 1010.38 1010.49 1010.98 1011.10 1011.56 1011.59 1012.27 1012.49 1012.70 1012.79 1013.13 1013.29 1013.25 1013.58 1014.01 1014.31 1014.43 1014.47 1014.29 1014.19 1014.13 1014.17 1014.03 1014.12 1014.35 1014.24 1014.21 1014.07 1014.02 1013.90 1013.80 1013.61 1013.32 1012.95 1012.55 1012.28 1012.14 1011.97 1011.99 1012.05 1012.19 1012.39
1009.45 1009.99 1010.27 1010.65 1011.01 1011.20 1011.57 1012.08 1012.34 1012.52 1012.78 1012.95 1013.04 1013.18 1013.70 1014.02 1014.18 1014.14 1014.16 1014.10 1014.12 1014.05 1014.22 1014.13 1013.95 1013.84 1014.03 1014.25 1014.16 1013.98 1013.78 1013.63 1013.52 1013.29 1012.92 1012.51 1012.21 1011.93 1011.59 1011.39 1011.68 1011.64 1011.72
1009.03 1009.59 1010.01 1010.42 1010.83 1010.98 1011.41 1011.80 1012.01 1012.43 1012.46 1012.45 1012.75 1013.15 1013.59 1013.88 1013.99 1013.72 1013.75 1013.88 1013.79 1014.18 1014.22 1014.28 1014.29 1013.88 1014.09 1014.19 1013.86 1013.74 1013.63 1013.41 1013.23 1013.05 1012.77 1012.33 1011.97 1011.65 1011.38 1011.13 1011.11 1011.16 1010.97
1008.91 1009.36 1009.78 1010.10 1010.32 1010.71 1011.24 1011.58 1011.81 1011.94 1012.02 1012.34 1012.71 1013.03 1013.15 1013.38 1013.52 1013.58 1014.00 1013.84 1013.81 1013.92 1014.05 1014.17 1014.27 1014.19 1014.31 1014.23 1013.92 1013.51 1013.43 1013.33 1013.18 1012.92 1012.63 1012.24 1011.81 1011.43 1011.13 1010.91 1010.79 1010.70 1010.37
1009.22 1009.42 1009.67 1009.93 1010.41 1010.76 1011.20 1011.32 1011.45 1011.62 1011.95 1012.35 1012.70 1012.96 1012.98 1013.08 1013.54 1013.62 1014.28 1014.03 1013.83 1013.87 1014.19 1014.30 1014.31 1014.09 1014.21 1014.27 1014.15 1013.74 1013.42 1013.34 1013.21 1012.81 1012.55 1012.16 1011.79 1011.42 1011.00 1010.69 1010.45 1010.16 1009.77
1010.19 1010.08 1009.77 1010.01 1010.80 1011.17 1011.24 1011.26 1011.58 1011.96 1012.23 1012.49 1012.80 1012.79 1012.80 1012.96 1013.21 1013.55 1013.88 1013.90 1013.98 1013.99 1014.24 1014.40 1014.30 1014.43 1014.65 1014.78 1014.43 1013.98 1013.71 1013.44 1013.11 1012.79 1012.39 1012.07 1011.80 1011.40 1010.94 1010.56 1010.22 1009.95 1009.54
1011.20 1011.22 1011.20 1010.99 1010.98 1011.33 1011.51 1011.39 1011.75 1012.25 1012.52 1012.71 1012.76 1012.75 1012.87 1013.12 1013.17 1013.59 1013.86 1014.09 1014.33 1014.34 1014.42 1014.52 1014.84 1015.07 1015.15 1014.94 1014.61 1014.11 1013.68 1013.51 1013.02 1012.62 1012.44 1012.01 1011.67 1011.25 1010.82 1010.41 1010.07 1009.71 1009.22
1011.43 1011.69 1011.55 1011.38 1011.63 1011.54 1011.54 1011.75 1012.27 1012.60 1012.62 1012.66 1012.87 1013.03 1013.24 1013.33 1013.51 1014.11 1014.49 1014.57 1014.52 1014.56 1014.84 1015.14 1015.36 1015.28 1015.33 1015.25 1014.78 1014.44 1013.94 1013.47 1013.12 1012.92 1012.59 1012.00 1011.58 1010.99 1010.65 1010.31 1010.02 1009.60 1009.08
1012.06 1012.10 1012.38 1012.35 1012.80 1012.46 1012.29 1012.45 1012.63 1013.27 1013.39 1013.32 1013.29 1013.34 1013.49 1013.73 1013.89 1014.39 1014.78 1014.77 1014.63 1014.96 1015.44 1015.67 1015.72 1015.78 1015.78 1015.83 1015.41 1014.73 1013.94 1013.15 1012.96 1012.85 1012.65 1012.25 1011.63 1010.84 1010.56 1010.31 1009.94 1009.42 1009.06
1012.38 1012.66 1012.99 1013.37 1013.27 1013.31 1013.38 1013.41 1013.29 1013.77 1013.91 1013.78 1014.16 1014.26 1014.34 1014.44 1014.57 1014.58 1014.86 1014.65 1014.76 1015.34 1015.84 1016.18 1016.44 1016.49 1016.38 1016.08 1016.33 1015.72 1014.77 1013.70 1013.33 1013.21 1012.77 1012.30 1011.77 1011.26 1010.73 1010.13 1009.82 1009.33 1009.07
1013.25 1013.30 1013.56 1013.82 1013.94 1014.08 1014.17 1013.82 1013.67 1013.98 1014.36 1014.67 1014.88 1015.08 1015.25 1014.86 1014.68 1014.77 1014.75 1014.91 1015.26 1015.80 1016.39 1016.63 1016.62 1016.84 1016.95 1016.37 1016.17 1016.40 1015.97 1015.34 1014.08 1012.70 1012.75 1012.48 1012.18 1011.50 1010.82 1010.26 1009.73 1009.47 1009.10
1014.18 1014.08 1014.11 1014.29 1014.33 1014.23 1014.17 1014.61 1014.86 1015.40 1015.86 1015.88 1015.63 1015.76 1015.57 1015.46 1015.12 1015.02 1015.35 1015.46 1015.73 1016.23 1016.68 1016.80 1016.83 1016.83 1016.85 1016.85 1016.32 1016.24 1016.46 1016.31 1015.73 1013.50 1012.84 1012.62 1012.16 1011.69 1010.88 1010.37 1009.97 1009.52 1009.56
1014.72 1015.08 1015.10 1015.10 1015.16 1015.18 1014.58 1014.51 1014.91 1014.96 1015.27 1015.51 1016.17 1016.14 1016.10 1015.79 1015.40 1015.59 1015.98 1015.98 1016.28 1016.57 1016.53 1016.57 1016.69 1016.79 1016.71 1016.85 1016.79 1016.43 1016.00 1015.65 1015.45 1015.21 1013.36 1012.65 1012.01 1011.35 1010.89 1010.38 1010.09 1010.12 1009.91
1015.66 1015.42 1015.22 1015.01 1015.19 1015.20 1015.53 1015.58 1015.21 1014.98 1014.95 1015.21 1015.60 1016.02 1016.20 1016.08 1015.99 1015.99 1016.14 1016.08 1016.10 1016.36 1016.20 1016.18 1016.38 1016.35 1016.28 1016.43 1016.52 1016.37 1016.11 1015.72 1015.10 1014.65 1013.61 1012.67 1012.04 1011.25 1010.44 1010.11 1010.34 1010.37 1010.02
Wind_Speed
5 6 12 14 15 15 15 15 14 14 15 15 15 16 16 16 16 16 15 14 14 13 13 12 12 11 10 10 10 9 9 9 10 10 10 10 9 8 8 8 11 9 10
10 7 14 15 14 15 15 15 14 13 14 15 15 15 15 15 15 15 14 13 11 11 12 12 11 10 9 9 8 8 8 8 8 8 8 8 8 6 5 8 9 9 11
11 8 10 16 14 14 14 14 13 13 13 14 14 14 14 14 14 13 13 11 11 11 11 10 9 9 8 7 6 6 5 6 5 5 4 3 4 6 5 6 9 11 11
11 7 9 15 14 14 13 13 13 13 13 13 14 14 14 13 12 12 11 10 10 10 10 8 7 6 5 5 4 3 2 3 1 1 1 2 4 10 8 8 9 10 12
8 7 9 14 13 13 13 12 12 13 13 13 13 14 14 13 12 10 10 9 9 10 9 8 6 4 3 2 1 1 2 1 2 3 3 4 4 7 12 10 10 12 13
8 6 11 13 12 12 13 13 12 11 11 11 12 12 12 12 11 10 9 8 8 8 8 6 5 3 2 0 1 3 5 6 5 3 4 5 6 11 14 12 13 12 12
10 8 9 13 13 12 13 13 12 11 10 10 10 11 10 10 9 8 7 6 6 6 6 5 4 2 1 1 3 5 7 8 5 4 5 6 7 4 14 15 14 13 12
16 13 13 17 16 15 14 14 12 11 10 10 9 10 9 8 8 7 6 5 5 5 5 5 4 3 3 4 5 6 8 10 7 6 4 5 8 9 14 15 15 15 15
15 13 10 10 14 17 15 14 13 12 11 10 10 9 8 8 8 8 8 8 7 6 6 5 6 6 6 6 7 8 9 11 7 5 7 4 8 9 13 16 16 17 17
12 10 8 7 8 9 10 15 15 15 13 11 9 9 8 8 8 9 9 8 8 7 7 7 7 7 7 7 8 9 11 13 6 6 5 6 12 15 14 18 19 18 17
9 9 7 8 7 8 7 11 14 16 15 13 10 9 7 4 5 7 8 10 9 8 8 8 8 7 8 9 10 11 13 4 5 5 5 12 14 15 14 16 20 19 18
11 11 10 9 8 7 7 6 5 6 5 5 6 7 5 5 4 7 7 10 11 10 9 8 8 9 9 4 3 9 4 6 4 6 5 15 15 15 16 18 19 18 19
12 8 11 9 9 8 6 4 2 2 3 3 6 6 5 4 3 3 2 4 3 8 3 5 4 4 5 4 4 4 5 5 4 4 8 15 15 16 18 20 21 20 18
14 10 9 8 8 7 6 5 4 4 4 4 5 6 4 3 4 5 3 5 4 4 4 4 3 4 4 5 5 6 5 4 3 4 6 14 14 15 14 15 19 19 19
14 10 9 8 8 7 7 5 5 4 5 5 4 4 4 3 3 3 3 3 3 1 3 3 3 1 2 3 2 4 6 5 5 3 3 11 10 11 13 13 16 20 21
9 9 9 8 10 10 7 9 6 6 5 4 4 5 6 4 4 4 2 3 3 4 2 2 1 3 4 3 5 5 6 5 6 6 4 5 12 12 12 15 16 18 19
7 9 12 8 7 7 7 7 6 5 5 4 4 5 6 6 5 6 1 2 2 2 4 4 3 2 3 5 6 5 5 6 7 8 7 5 6 9 12 12 15 18 19
8 6 4 5 8 6 6 5 4 4 3 4 4 4 6 5 7 4 1 2 2 4 4 3 4 4 4 4 4 5 5 5 7 6 6 5 5 6 7 13 15 18 20
9 8 6 4 5 6 5 4 4 6 4 3 4 4 5 4 3 3 2 3 3 4 4 5 4 3 3 4 5 5 5 5 7 7 8 7 8 7 4 8 13 13 17
11 8 7 2 6 6 4 4 5 4 3 3 3 3 5 1 2 3 3 4 3 4 5 4 5 3 2 4 6 6 6 6 5 5 6 7 7 7 6 7 5 6 12
13 16 16 15 10 8 5 3 4 2 1 3 3 4 6 4 5 6 3 4 5 6 4 5 3 5 3 4 3 5 5 6 5 5 5 6 9 10 7 6 5 4 5
12 12 13 12 12 9 4 3 2 1 3 3 3 4 5 4 3 5 4 5 6 5 7 6 5 3 2 4 2 3 6 6 4 12 7 6 8 6 9 9 7 6 5
10 10 11 10 10 10 8 4 4 4 4 5 4 4 3 2 3 4 5 6 6 5 4 3 3 4 3 3 2 1 5 4 14 2 10 4 10 9 7 8 7 4 5
7 7 9 8 8 7 8 8 12 8 4 4 3 3 4 6 5 6 6 6 6 4 4 2 3 1 1 4 4 1 3 4 4 10 2 10 5 7 10 7 5 3 5
10 8 7 8 9 7 7 8 6 6 5 4 2 5 6 5 7 7 5 5 5 3 3 4 4 4 1 1 2 3 4 3 5 6 13 8 9 6 7 5 4 5 7
6 7 7 9 6 6 6 6 6 7 5 4 4 5 2 1 1 1 3 4 2 2 2 1 1 3 3 3 3 4 3 4 7 7 11 14 11 9 4 5 4 5 4
Wind_Direction
190 169 148 139 135 134 131 127 122 115 110 106 105 103 100 100 103 104 105 104 106 111 115 109 100 99 96 98 105 103 104 106 110 114 119 122 117 108 111 130 119 115 114
139 165 149 141 140 139 137 134 129 124 121 118 116 111 106 107 107 107 107 107 110 114 115 106 98 97 101 100 104 102 105 108 106 113 119 116 114 111 98 109 121 132 129
142 154 146 139 142 142 141 137 134 130 126 123 122 118 115 113 113 113 115 117 117 116 117 112 108 107 107 110 110 110 109 107 107 112 131 147 151 150 149 141 144 145 140
145 143 141 141 144 144 141 138 136 134 131 131 128 126 125 119 118 117 118 120 120 120 122 122 119 114 109 108 111 119 118 106 111 163 270 249 218 175 186 185 173 166 154
136 136 142 141 144 145 143 142 143 141 140 139 137 137 138 133 130 129 126 129 132 131 130 126 120 116 115 110 97 298 287 245 244 281 265 261 264 204 196 196 197 184 171
130 128 138 142 144 146 147 144 143 143 143 146 144 145 146 146 144 143 139 138 134 134 131 129 132 142 144 159 288 296 301 302 293 277 273 269 257 243 200 192 211 205 194
140 138 144 148 146 149 149 146 144 146 148 151 148 147 149 149 150 150 148 144 132 131 136 140 146 156 210 279 289 295 296 294 291 266 263 273 281 248 188 197 209 213 208
156 162 162 157 152 153 154 148 148 152 153 154 152 151 152 151 153 162 165 163 155 150 152 160 175 198 229 253 270 273 275 279 287 289 262 259 263 256 203 204 208 210 205
158 157 162 158 157 157 154 152 153 154 157 158 158 155 155 160 165 176 180 182 183 184 185 196 209 222 238 252 263 273 276 281 283 283 291 285 274 264 234 214 209 209 205
152 157 157 153 157 157 160 160 159 159 159 159 161 159 162 171 181 188 192 196 198 201 211 225 236 244 253 262 269 274 276 280 275 278 279 275 272 277 279 216 215 214 210
161 161 163 158 162 158 164 170 168 164 160 160 161 166 170 187 201 204 201 204 207 214 225 239 252 264 271 268 266 268 273 251 246 258 262 265 268 269 264 229 218 214 213
173 173 167 167 171 163 166 156 154 169 149 158 163 169 180 193 204 213 218 213 216 219 227 242 252 254 261 261 264 275 268 260 242 255 260 263 260 255 248 233 228 227 220
172 163 175 173 170 171 146 139 147 151 144 164 178 180 176 181 219 228 222 237 224 222 222 230 246 245 252 261 273 269 275 272 257 258 258 263 270 272 259 243 232 227 226
166 171 168 171 170 171 136 164 163 156 170 179 195 189 155 197 206 221 213 214 205 214 226 240 245 226 251 286 291 299 298 285 268 263 262 271 273 278 279 251 237 240 228
160 170 157 165 177 162 152 170 164 174 189 181 183 165 138 188 190 187 190 214 206 278 218 250 286 349 339 302 350 343 330 322 315 292 282 293 297 273 275 262 241 236 236
139 150 155 169 168 163 170 183 182 180 185 148 150 150 148 158 160 133 199 225 201 212 288 227 166 61 40 339 344 355 335 329 322 319 304 308 299 304 290 284 281 268 258
146 156 162 155 142 149 163 170 157 157 137 145 147 140 158 177 149 161 176 125 106 92 113 73 53 67 31 3 345 342 332 333 326 323 314 301 304 301 296 284 276 274 265
42 55 117 131 131 134 132 124 114 105 109 120 140 160 163 172 165 151 67 146 108 103 101 78 39 17 14 2 330 323 320 319 308 313 305 312 312 302 301 293 291 290 284
63 50 42 93 117 118 103 105 104 104 133 156 153 169 175 168 163 59 129 89 85 82 58 49 33 37 354 345 327 319 313 310 309 315 313 309 311 304 292 283 288 289 287
63 62 25 23 42 55 65 64 75 80 112 148 114 107 122 169 78 98 78 97 104 74 50 40 40 2 2 355 325 320 303 290 285 298 302 318 306 293 307 304 301 300 309
61 53 47 50 27 34 23 3 51 78 22 55 46 113 122 124 100 116 108 80 59 63 65 43 8 8 350 352 347 305 266 276 287 329 323 303 311 313 310 306 301 305 306
75 73 69 58 45 39 32 10 73 83 80 80 43 44 72 104 119 107 122 92 72 66 37 36 44 357 322 22 359 293 335 319 10 325 306 309 306 310 316 311 301 317 319
75 73 75 71 66 65 54 20 38 35 27 26 27 24 341 98 112 104 89 84 70 64 47 23 34 42 327 303 54 212 342 301 324 13 301 322 321 307 306 306 308 333 21
85 77 80 81 91 83 88 78 76 77 54 344 8 358 6 348 18 51 56 70 76 69 48 21 33 48 32 327 337 143 211 248 305 318 342 322 301 302 300 305 319 355 16
38 41 47 48 38 20 90 105 110 109 130 131 16 14 10 14 53 72 72 60 71 78 78 33 1 346 305 270 258 293 294 249 235 251 297 313 304 294 292 287 14 18 3
79 71 66 61 59 76 69 18 112 119 114 99 128 123 116 99 83 105 122 119 161 93 102 115 286 310 298 286 283 282 256 278 298 291 296 305 300 290 275 306 37 8 346